Regional Weather Roundup
Issued by NWS

Home | Current Version | Previous Version | Text Only | Print | Product List | Glossary Off
Versions: 1 2 3 4 5 6 7 8 9 10 11 12 13 14 15 16 17 18 19 20 21 22 23 24 25 26 27 28 29 30 31 32 33 34 35 36 37 38 39 40 41 42 43 44 45 46 47 48 49 50

000
ASUS43 KFSD 282010
RWRSD

WEATHER ROUNDUP FOR SOUTH DAKOTA
NATIONAL WEATHER SERVICE SIOUX FALLS SD
200 PM CST SAT FEB 28 2015

NOTE: "FAIR" INDICATES FEW OR NO CLOUDS BELOW 12,000 FEET WITH NO
SIGNIFICANT WEATHER AND/OR OBSTRUCTIONS TO VISIBILITY.


SDZ001>005-009-010-012>017-282100-
NORTHWEST AND NORTH CENTRAL SOUTH DAKOTA

CITY           SKY/WX    TMP DP  RH WIND       PRES   REMARKS
BUFFALO          N/A     17   6  62 NW24      30.03  WCI  -1
FAITH            N/A     25   3  38 NW18G28   30.10  WCI  11
MOBRIDGE       CLOUDY    25  14  63 NW15      30.09S WCI  13
$$

SDZ012>016-024>037-041>051-057-063-072>074-282100-
SOUTHWEST AND SOUTH CENTRAL SOUTH DAKOTA

CITY           SKY/WX    TMP DP  RH WIND       PRES   REMARKS
RAPID CTY ARPT SUNNY     22  12  65 N18G28    30.09F WCI   7
PIERRE         SUNNY     33   8  35 NW16G22   30.11  WCI  23
CUSTER         PTSUNNY   25   4  40 W12       29.91  WCI  14
ELLSWORTH AFB  MOSUNNY   21   8  57 N22       30.07  WCI   5
PHILIP         SUNNY     31   2  29 NW17G29   30.13  WCI  19
PINE RIDGE     CLOUDY    29   5  36 NE9       30.08F WCI  20
WINNER         FAIR      35   9  33 W17       30.12  WCI  25
$$

SDZ004>011-016>023-039-040-282100-
NORTHEAST SOUTH DAKOTA

CITY           SKY/WX    TMP DP  RH WIND       PRES   REMARKS
ABERDEEN       SUNNY     26  14  60 SW18      30.15  WCI  13
WATERTOWN      MOSUNNY   22  12  65 S23       30.17F WCI   6
SISSETON         N/A     24  13  62 SW20      30.19  WCI  10
$$

SDZ017-020-022-023-036>040-048>070-282100-
SOUTHEAST SOUTH DAKOTA

CITY           SKY/WX    TMP DP  RH WIND       PRES   REMARKS
SIOUX FALLS    PTSUNNY   23  13  65 S22G31    30.25F WCI   8
HURON          SUNNY     28  13  53 S15       30.18  WCI  16
CHAMBERLAIN    SUNNY     33  10  38 SW14G20   30.14F WCI  23
MITCHELL       PTSUNNY   30   9  41 S16G25    30.21F WCI  19
YANKTON        SUNNY     28  10  47 S15       30.26F WCI  17
$$

ABBREVIATIONS USED IN REMARKS
   TC - TEMPERATURE IN CELSIUS
  WCI - WIND CHILL INDEX
   HX - HEAT INDEX
  VSB - VISIBILITY



USA.gov is the U.S. government's official web portal to all federal, state and local government web resources and services.